Flag for Tunisia Weather past 2 weeks in Sfax, Tunisia

Now
86 °F

Passing clouds.


Feels Like: 86 °F
Forecast: 70 / 88 °F
Wind: 7 mph from Southeast

Location: Sfax El-Maou

Current Time: Jul 31, 2014 at 1:24:43 PM

Latest Report: Jul 31, 2014 at 12:00 PM


Visibility: N/A

Pressure: 29.95 "Hg

Humidity: 43%

Dew point: 61 °F

Location of SfaxLocation

Historic Weather in Sfax — Graph

°F

Sfax temperature yesterday

Maximum temperature yesterday: 91 °F (at 1:00 PM)
Minimum temperature yesterday: 77 °F (at 5:00 AM)
Average temperature yesterday: 82 °F

Past Weeks' High & Low Weather Summary

 TemperatureHumidityPressure
High106 °F (Jul 26, 9:00 PM)89% (Jul 25, 6:00 AM)30.09 "Hg (Jul 25, 6:00 AM)
Low70 °F (Jul 17, 5:00 AM)12% (Jul 26, 9:00 PM)29.71 "Hg (Jul 29, 5:00 PM)
Average82 °F58%29.94 "Hg
* Reported Jul 16 12:00 Noon — Jul 31 12:00 Noon, Sfax, Weather by CustomWeather, © 2014

Note: Actual official high and low records may vary slightly from our data, if they occured in-between our weather recording intervals... More about our weather records

Advertising

Sfax weather history for previous 24 hours

 ConditionsComfort  
Time TempWeatherWind HumidityBarometerVisibility
12:00 PM
Jul 31
86 °FPassing clouds.7 mph43%29.95 "HgN/A
11:00 AM88 °FPassing clouds.3 mph38%29.95 "HgN/A
10:00 AM86 °FPassing clouds.3 mph33%29.98 "HgN/A
9:00 AM82 °FPassing clouds.3 mph40%29.95 "HgN/A
8:00 AM81 °FPassing clouds.3 mph54%29.95 "HgN/A
7:00 AM73 °FSunny.3 mph65%29.95 "Hg10 mi
4:00 AM72 °FClear.3 mph69%29.95 "Hg10 mi
12:00 AM77 °FClear.7 mph61%29.95 "Hg10 mi
11:00 PM
Jul 30
77 °FClear.8 mph57%29.98 "Hg10 mi
10:00 PM79 °FClear.8 mph54%29.95 "Hg10 mi
9:00 PM79 °FClear.13 mph58%29.95 "Hg10 mi
8:00 PM79 °FPassing clouds.14 mph58%29.92 "HgN/A
7:00 PM81 °FSunny.16 mph54%29.89 "Hg10 mi
6:00 PM82 °FSunny.17 mph48%29.89 "Hg10 mi
5:00 PM82 °FPassing clouds.16 mph51%29.89 "HgN/A
4:00 PM84 °FSunny.18 mph51%29.89 "Hg10 mi
3:00 PM84 °FSunny.17 mph51%29.89 "Hg10 mi
2:00 PM86 °FPassing clouds.18 mph49%29.89 "HgN/A
1:00 PM91 °FPassing clouds.12 mph32%29.89 "HgN/A
Weather by CustomWeather, © 2014

See weather overviewHow to use our weather pages